Location: Northcutt
(34.7304°N, 84.4305°W)
Time: 07:34:46
(UTC+00:00)

Transit 2A Rocket - Pass Details

Date: 04 October 2022
Orbit: 589 x 911 km, 66.7° (Epoch: 04 December)

Event Time Altitude Azimuth Distance (km) Brightness Sun altitude
Exits shadow 09:38:57 - 172° (S) 2,753 7.8 -24.5°
Reaches altitude 10° 09:41:19 10° 158° (SSE) 1,941 7.2 -24.0°
Maximum altitude 09:44:36 21° 109° (ESE) 1,340 6.9 -23.3°
Drops below altitude 10° 09:47:49 10° 59° (ENE) 1,916 8.0 -22.7°
Sets 09:50:28 0° 43° (NE) 2,825 8.8 -22.2°
